• In Czech Republic
  • List of Countries
  • For 7 days
  • Water Temperature
  • Satellite Maps
  • Weather Map
  • Weather Widgets
  • user-avatar
    Login

    Hourly Weather Ganja

    Today, 19 July, Thursday

    Time Temperature Precipitation Wind Pressure Humidity
    00:00 +27°C° 0 mm 2 mps 719 mmHg 60%
    01:00 +26°C° 0 mm 2 mps 719 mmHg 62%
    02:00 +26°C° 0 mm 1 mps 719 mmHg 63%
    03:00 +25°C° 0 mm 1 mps 719 mmHg 63%
    04:00 +26°C° 0 mm 1 mps 719 mmHg 61%
    05:00 +26°C° 0 mm 1 mps 719 mmHg 60%
    06:00 +26°C° 0 mm 2 mps 719 mmHg 59%
    07:00 +28°C° 0 mm 2 mps 719 mmHg 56%
    08:00 +29°C° 0 mm 2 mps 718 mmHg 53%
    09:00 +30°C° 0 mm 2 mps 718 mmHg 49%
    10:00 +32°C° 0 mm 2 mps 718 mmHg 47%
    11:00 +34°C° 0 mm 2 mps 718 mmHg 44%
    12:00 +35°C° 0 mm 2 mps 717 mmHg 41%
    13:00 +36°C° 0 mm 2 mps 717 mmHg 40%
    14:00 +36°C° 0 mm 2 mps 717 mmHg 38%
    15:00 +37°C° 0 mm 2 mps 716 mmHg 37%
    16:00 +37°C° 0.1 mm 2 mps 716 mmHg 38%
    17:00 +36°C° 0.1 mm 2 mps 716 mmHg 38%
    18:00 +36°C° 0.1 mm 2 mps 716 mmHg 38%
    19:00 +35°C° 0 mm 2 mps 717 mmHg 40%
    20:00 +32°C° 0 mm 2 mps 717 mmHg 41%
    21:00 +30°C° 0 mm 2 mps 718 mmHg 43%
    22:00 +30°C° 0 mm 2 mps 718 mmHg 44%
    23:00 +29°C° 0 mm 2 mps 718 mmHg 44%

    Tomorrow, 20 July, Friday

    Time Temperature Precipitation Wind Pressure Humidity
    00:00 +29°C° 0 mm 2 mps 718 mmHg 45%
    01:00 +28°C° 0 mm 3 mps 718 mmHg 47%
    02:00 +28°C° 0 mm 3 mps 718 mmHg 48%
    03:00 +27°C° 0 mm 3 mps 718 mmHg 50%
    04:00 +28°C° 0 mm 3 mps 718 mmHg 51%
    05:00 +28°C° 0 mm 3 mps 718 mmHg 52%
    06:00 +28°C° 0 mm 3 mps 718 mmHg 52%
    07:00 +30°C° 0 mm 3 mps 718 mmHg 47%
    08:00 +31°C° 0 mm 3 mps 718 mmHg 42%
    09:00 +34°C° 0 mm 3 mps 718 mmHg 37%
    10:00 +35°C° 0 mm 3 mps 718 mmHg 35%
    11:00 +36°C° 0 mm 3 mps 718 mmHg 33%
    12:00 +37°C° 0 mm 3 mps 718 mmHg 31%
    13:00 +38°C° 0 mm 3 mps 717 mmHg 30%
    14:00 +38°C° 0 mm 3 mps 717 mmHg 29%
    15:00 +39°C° 0 mm 3 mps 717 mmHg 28%
    16:00 +38°C° 0 mm 3 mps 717 mmHg 30%
    17:00 +38°C° 0 mm 3 mps 717 mmHg 31%
    18:00 +38°C° 0 mm 3 mps 716 mmHg 32%
    19:00 +36°C° 0 mm 3 mps 717 mmHg 36%
    20:00 +34°C° 0 mm 3 mps 717 mmHg 39%
    21:00 +32°C° 0 mm 4 mps 718 mmHg 43%
    22:00 +30°C° 0.1 mm 3 mps 718 mmHg 46%
    23:00 +29°C° 0.1 mm 3 mps 718 mmHg 50%

    Day after tomorrow, 21 July, Saturday

    Time Temperature Precipitation Wind Pressure Humidity
    00:00 +28°C° 0.1 mm 3 mps 718 mmHg 53%
    01:00 +28°C° 0.2 mm 2 mps 718 mmHg 55%
    02:00 +27°C° 0.2 mm 2 mps 719 mmHg 57%
    03:00 +26°C° 0.2 mm 1 mps 719 mmHg 60%
    04:00 +27°C° 0 mm 2 mps 719 mmHg 59%
    05:00 +27°C° 0 mm 2 mps 719 mmHg 58%
    06:00 +27°C° 0 mm 2 mps 719 mmHg 58%
    07:00 +28°C° 0 mm 3 mps 719 mmHg 54%
    08:00 +30°C° 0 mm 3 mps 719 mmHg 50%
    09:00 +31°C° 0 mm 3 mps 720 mmHg 47%
    10:00 +33°C° 0 mm 3 mps 719 mmHg 45%
    11:00 +34°C° 0 mm 3 mps 719 mmHg 44%
    12:00 +35°C° 0 mm 2 mps 719 mmHg 42%
    13:00 +35°C° 0.2 mm 2 mps 719 mmHg 41%
    14:00 +36°C° 0.2 mm 2 mps 719 mmHg 40%
    15:00 +37°C° 0.2 mm 2 mps 719 mmHg 38%
    16:00 +36°C° 0.3 mm 2 mps 719 mmHg 39%
    17:00 +36°C° 0.3 mm 2 mps 719 mmHg 40%
    18:00 +36°C° 0.3 mm 2 mps 719 mmHg 41%
    19:00 +34°C° 0.4 mm 2 mps 719 mmHg 45%
    20:00 +31°C° 0.4 mm 2 mps 720 mmHg 49%
    21:00 +29°C° 0.4 mm 2 mps 721 mmHg 54%
    22:00 +29°C° 0.3 mm 2 mps 721 mmHg 56%
    23:00 +28°C° 0.3 mm 2 mps 721 mmHg 58%

    22 July, Sunday

    Time Temperature Precipitation Wind Pressure Humidity
    00:00 +27°C° 0.3 mm 2 mps 721 mmHg 60%
    01:00 +27°C° 0.1 mm 2 mps 721 mmHg 61%
    02:00 +26°C° 0.1 mm 2 mps 721 mmHg 62%
    03:00 +26°C° 0.1 mm 2 mps 721 mmHg 63%
    04:00 +26°C° 0 mm 2 mps 721 mmHg 62%
    05:00 +26°C° 0 mm 2 mps 721 mmHg 61%
    06:00 +27°C° 0 mm 2 mps 721 mmHg 60%
    07:00 +28°C° 0 mm 2 mps 721 mmHg 56%
    08:00 +29°C° 0 mm 3 mps 721 mmHg 51%
    09:00 +31°C° 0 mm 3 mps 721 mmHg 47%
    10:00 +31°C° 0 mm 3 mps 720 mmHg 45%
    11:00 +33°C° 0 mm 3 mps 720 mmHg 43%
    12:00 +34°C° 0 mm 3 mps 720 mmHg 41%
    13:00 +35°C° 0.1 mm 3 mps 719 mmHg 39%
    14:00 +36°C° 0.1 mm 4 mps 719 mmHg 37%
    15:00 +37°C° 0.1 mm 4 mps 719 mmHg 35%
    16:00 +37°C° 0.1 mm 4 mps 719 mmHg 35%
    17:00 +36°C° 0.1 mm 4 mps 719 mmHg 36%
    18:00 +36°C° 0.1 mm 5 mps 719 mmHg 36%
    19:00 +34°C° 0 mm 5 mps 719 mmHg 40%
    20:00 +33°C° 0 mm 5 mps 720 mmHg 43%
    21:00 +30°C° 0 mm 5 mps 720 mmHg 47%
    22:00 +29°C° 0 mm 4 mps 720 mmHg 49%
    23:00 +28°C° 0 mm 3 mps 720 mmHg 52%

    23 July, Monday

    Time Temperature Precipitation Wind Pressure Humidity
    00:00 +27°C° 0 mm 3 mps 720 mmHg 54%
    01:00 +27°C° 0 mm 2 mps 720 mmHg 55%
    02:00 +26°C° 0 mm 2 mps 720 mmHg 56%
    03:00 +26°C° 0 mm 1 mps 720 mmHg 58%
    04:00 +26°C° 0 mm 2 mps 720 mmHg 57%
    05:00 +26°C° 0 mm 2 mps 720 mmHg 56%
    06:00 +26°C° 0 mm 2 mps 720 mmHg 55%
    07:00 +28°C° 0 mm 2 mps 720 mmHg 51%
    08:00 +29°C° 0 mm 2 mps 720 mmHg 47%
    09:00 +30°C° 0 mm 2 mps 720 mmHg 43%
    10:00 +32°C° 0 mm 2 mps 719 mmHg 41%
    11:00 +34°C° 0 mm 3 mps 719 mmHg 38%
    12:00 +35°C° 0 mm 3 mps 718 mmHg 36%
    13:00 +36°C° 0.1 mm 3 mps 718 mmHg 34%
    14:00 +36°C° 0.1 mm 4 mps 717 mmHg 33%
    15:00 +37°C° 0.1 mm 4 mps 717 mmHg 32%
    16:00 +37°C° 0.1 mm 4 mps 717 mmHg 33%
    17:00 +36°C° 0.1 mm 4 mps 717 mmHg 34%
    18:00 +36°C° 0.1 mm 4 mps 718 mmHg 35%
    19:00 +35°C° 0.1 mm 4 mps 718 mmHg 38%
    20:00 +33°C° 0.1 mm 4 mps 719 mmHg 42%
    21:00 +30°C° 0.1 mm 4 mps 719 mmHg 45%
    22:00 +29°C° 0.1 mm 3 mps 719 mmHg 48%
    23:00 +28°C° 0.1 mm 3 mps 719 mmHg 51%

    24 July, Tuesday

    Time Temperature Precipitation Wind Pressure Humidity
    00:00 +27°C° 0.1 mm 2 mps 719 mmHg 54%
    01:00 +27°C° 0 mm 2 mps 719 mmHg 55%
    02:00 +26°C° 0 mm 2 mps 719 mmHg 56%
    03:00 +26°C° 0 mm 2 mps 719 mmHg 56%
    04:00 +26°C° 0 mm 2 mps 719 mmHg 56%
    05:00 +26°C° 0 mm 2 mps 720 mmHg 56%
    06:00 +26°C° 0 mm 3 mps 720 mmHg 57%
    07:00 +28°C° 0 mm 3 mps 720 mmHg 52%
    08:00 +29°C° 0 mm 3 mps 720 mmHg 48%
    09:00 +31°C° 0 mm 3 mps 720 mmHg 43%
    10:00 +33°C° 0 mm 3 mps 720 mmHg 41%
    11:00 +34°C° 0 mm 3 mps 719 mmHg 39%
    12:00 +35°C° 0 mm 2 mps 719 mmHg 37%
    13:00 +36°C° 0 mm 2 mps 719 mmHg 36%
    14:00 +36°C° 0 mm 2 mps 719 mmHg 35%
    15:00 +37°C° 0 mm 2 mps 718 mmHg 34%
    16:00 +37°C° 0 mm 2 mps 719 mmHg 35%
    17:00 +37°C° 0 mm 2 mps 719 mmHg 36%
    18:00 +36°C° 0 mm 2 mps 719 mmHg 37%
    19:00 +35°C° 0 mm 2 mps 719 mmHg 39%
    20:00 +32°C° 0 mm 2 mps 720 mmHg 42%
    21:00 +31°C° 0 mm 2 mps 720 mmHg 44%
    22:00 +30°C° 0 mm 2 mps 720 mmHg 44%
    23:00 +29°C° 0 mm 2 mps 721 mmHg 44%
    Show more